Time,TemperatureF,DewpointF,PressureIn,WindDirection,WindDirectionDegrees,WindSpeedMPH,WindSpeedGustMPH,Humidity,HourlyPrecipIn,Conditions,Clouds,dailyrainin,SoftwareType,DateUTC
2013-02-20 00:57:00,7.9,-0.7,29.53,North,0,0.0,0.0,67,0.00,,,0.00,WUHU21623XXSP,2013-02-20 06:57:00,
2013-02-20 01:57:00,7.0,-1.9,29.55,NW,315,0.0,0.0,66,0.00,,,0.00,WUHU21623XXSP,2013-02-20 07:57:00,
2013-02-20 02:57:00,6.3,-2.3,29.56,NNW,338,0.0,0.0,67,0.00,,,0.00,WUHU21623XXSP,2013-02-20 08:57:00,
2013-02-20 03:57:00,6.4,-1.9,29.57,NW,315,0.0,0.0,68,0.00,,,0.00,WUHU21623XXSP,2013-02-20 09:57:00,
2013-02-20 04:57:00,5.4,-2.8,29.55,NE,45,0.0,0.0,68,0.00,,,0.00,WUHU21623XXSP,2013-02-20 10:57:00,
2013-02-20 06:06:00,4.8,-3.1,29.55,NNE,23,6.0,6.0,69,0.00,,,0.00,WUHU21623XXSP,2013-02-20 12:06:00,
2013-02-20 06:11:00,4.8,-3.2,29.56,NE,45,0.0,2.9,69,0.00,,,0.00,WUHU21623XXSP,2013-02-20 12:11:00,
2013-02-20 06:16:00,4.8,-3.2,29.55,NE,45,3.6,3.6,69,0.00,,,0.00,WUHU21623XXSP,2013-02-20 12:16:00,
2013-02-20 06:21:00,4.8,-3.2,29.56,NNE,22,0.0,3.6,69,0.00,,,0.00,WUHU21623XXSP,2013-02-20 12:21:00,
2013-02-20 06:26:00,4.8,-3.2,29.56,NNE,22,4.3,4.3,69,0.00,,,0.00,WUHU21623XXSP,2013-02-20 12:26:00,
2013-02-20 06:31:00,4.8,-3.2,29.56,NNW,337,1.8,4.3,69,0.00,,,0.00,WUHU21623XXSP,2013-02-20 12:31:00,
2013-02-20 06:36:00,4.8,-3.2,29.56,NNE,22,0.0,1.8,69,0.00,,,0.00,WUHU21623XXSP,2013-02-20 12:36:00,
2013-02-20 06:41:00,4.8,-3.2,29.56,NE,45,3.4,3.4,69,0.00,,,0.00,WUHU21623XXSP,2013-02-20 12:41:00,
2013-02-20 06:46:00,4.8,-3.2,29.56,NNE,22,0.0,3.4,69,0.00,,,0.00,WUHU21623XXSP,2013-02-20 12:46:00,
2013-02-20 06:51:00,4.8,-3.2,29.56,NNE,22,0.0,3.4,69,0.00,,,0.00,WUHU21623XXSP,2013-02-20 12:51:00,
2013-02-20 06:56:00,4.8,-3.2,29.56,NNE,22,0.0,0.0,69,0.00,,,0.00,WUHU21623XXSP,2013-02-20 12:56:00,
2013-02-20 07:01:00,4.8,-3.2,29.57,NE,45,0.0,0.0,69,0.00,,,0.00,WUHU21623XXSP,2013-02-20 13:01:00,
2013-02-20 07:06:00,5.0,-3.1,29.58,NE,45,5.6,5.6,69,0.00,,,0.00,WUHU21623XXSP,2013-02-20 13:06:00,
2013-02-20 07:11:00,5.0,-3.1,29.58,NNE,22,0.0,5.6,69,0.00,,,0.00,WUHU21623XXSP,2013-02-20 13:11:00,
2013-02-20 07:16:00,5.2,-2.9,29.58,NE,45,0.0,0.0,69,0.00,,,0.00,WUHU21623XXSP,2013-02-20 13:16:00,
2013-02-20 07:21:00,5.2,-2.9,29.59,NE,45,0.0,0.0,69,0.00,,,0.00,WUHU21623XXSP,2013-02-20 13:21:00,
2013-02-20 07:26:00,5.5,-2.5,29.59,NNW,337,0.0,0.0,69,0.00,,,0.00,WUHU21623XXSP,2013-02-20 13:26:00,
2013-02-20 07:31:00,5.7,-2.3,29.60,NNW,337,0.0,0.0,69,0.00,,,0.00,WUHU21623XXSP,2013-02-20 13:31:00,
2013-02-20 07:36:00,5.9,-2.2,29.60,NNW,337,0.0,0.0,69,0.00,,,0.00,WUHU21623XXSP,2013-02-20 13:36:00,
2013-02-20 07:41:00,6.4,-1.6,29.60,North,0,0.0,0.0,69,0.00,,,0.00,WUHU21623XXSP,2013-02-20 13:41:00,
2013-02-20 07:46:00,6.6,-1.8,29.61,NE,45,0.0,0.0,68,0.00,,,0.00,WUHU21623XXSP,2013-02-20 13:46:00,
2013-02-20 07:51:00,7.0,-1.4,29.61,NNE,22,0.0,0.0,68,0.00,,,0.00,WUHU21623XXSP,2013-02-20 13:51:00,
2013-02-20 07:56:00,7.3,-1.1,29.61,NE,45,0.0,0.0,68,0.00,,,0.00,WUHU21623XXSP,2013-02-20 13:56:00,
2013-02-20 08:01:00,7.5,-1.1,29.61,NNE,22,0.0,0.0,67,0.00,,,0.00,WUHU21623XXSP,2013-02-20 14:01:00,
2013-02-20 08:06:00,7.5,-1.2,29.61,NNE,22,0.0,0.0,67,0.00,,,0.00,WUHU21623XXSP,2013-02-20 14:06:00,
2013-02-20 08:11:00,8.2,-0.5,29.61,North,0,0.0,0.0,67,0.00,,,0.00,WUHU21623XXSP,2013-02-20 14:11:00,
2013-02-20 08:16:00,8.4,-0.3,29.61,North,0,0.0,0.0,67,0.00,,,0.00,WUHU21623XXSP,2013-02-20 14:16:00,
2013-02-20 08:21:00,8.8,0.0,29.62,NNE,22,0.0,0.0,67,0.00,,,0.00,WUHU21623XXSP,2013-02-20 14:21:00,
2013-02-20 08:26:00,9.1,0.0,29.60,NNE,22,0.0,0.0,66,0.00,,,0.00,WUHU21623XXSP,2013-02-20 14:26:00,
2013-02-20 08:31:00,9.3,0.2,29.60,NE,45,0.0,0.0,66,0.00,,,0.00,WUHU21623XXSP,2013-02-20 14:31:00,
2013-02-20 08:36:00,9.5,0.2,29.61,NE,45,0.0,0.0,66,0.00,,,0.00,WUHU21623XXSP,2013-02-20 14:36:00,
2013-02-20 08:41:00,10.2,0.7,29.61,West,270,0.0,0.0,66,0.00,,,0.00,WUHU21623XXSP,2013-02-20 14:41:00,
2013-02-20 08:46:00,10.6,1.0,29.61,NNW,337,0.0,0.0,65,0.00,,,0.00,WUHU21623XXSP,2013-02-20 14:46:00,
2013-02-20 08:51:00,10.9,1.4,29.61,North,0,0.0,0.0,65,0.00,,,0.00,WUHU21623XXSP,2013-02-20 14:51:00,
2013-02-20 08:56:00,11.3,1.7,29.61,NNW,337,0.0,0.0,65,0.00,,,0.00,WUHU21623XXSP,2013-02-20 14:56:00,
2013-02-20 09:01:00,11.7,1.9,29.62,NNW,337,0.0,0.0,65,0.00,,,0.00,WUHU21623XXSP,2013-02-20 15:01:00,
2013-02-20 09:06:00,12.0,1.9,29.61,NNW,337,0.0,0.0,64,0.00,,,0.00,WUHU21623XXSP,2013-02-20 15:06:00,
2013-02-20 09:11:00,12.6,2.6,29.61,NNE,22,3.8,3.8,64,0.00,,,0.00,WUHU21623XXSP,2013-02-20 15:11:00,
2013-02-20 09:16:00,12.7,2.4,29.61,North,0,0.0,3.8,63,0.00,,,0.00,WUHU21623XXSP,2013-02-20 15:16:00,
2013-02-20 09:21:00,12.7,2.4,29.60,North,0,0.0,0.0,63,0.00,,,0.00,WUHU21623XXSP,2013-02-20 15:21:00,
2013-02-20 09:26:00,12.9,2.6,29.61,WNW,292,4.9,4.9,63,0.00,,,0.00,WUHU21623XXSP,2013-02-20 15:26:00,
2013-02-20 09:31:00,13.1,2.8,29.61,North,0,0.0,4.9,63,0.00,,,0.00,WUHU21623XXSP,2013-02-20 15:31:00,
2013-02-20 09:36:00,13.3,2.8,29.61,North,0,0.0,0.0,63,0.00,,,0.00,WUHU21623XXSP,2013-02-20 15:36:00,
2013-02-20 09:41:00,13.8,3.5,29.61,NE,45,4.0,4.0,63,0.00,,,0.00,WUHU21623XXSP,2013-02-20 15:41:00,
2013-02-20 09:46:00,14.2,3.7,29.60,NNW,337,0.0,4.0,62,0.00,,,0.00,WUHU21623XXSP,2013-02-20 15:46:00,
2013-02-20 09:51:00,14.5,3.7,29.61,NNE,22,5.6,5.6,62,0.00,,,0.00,WUHU21623XXSP,2013-02-20 15:51:00,
2013-02-20 09:56:00,14.7,4.0,29.62,NNE,22,0.0,5.6,62,0.00,,,0.00,WUHU21623XXSP,2013-02-20 15:56:00,
2013-02-20 10:01:00,15.1,4.2,29.62,NNW,337,0.0,5.6,62,0.00,,,0.00,WUHU21623XXSP,2013-02-20 16:01:00,
2013-02-20 10:06:00,15.4,4.6,29.62,WNW,292,0.0,0.0,62,0.00,,,0.00,WUHU21623XXSP,2013-02-20 16:06:00,
2013-02-20 10:11:00,16.0,4.8,29.62,NE,45,0.0,0.0,61,0.00,,,0.00,WUHU21623XXSP,2013-02-20 16:11:00,
2013-02-20 10:16:00,16.2,5.0,29.61,NNE,22,0.0,0.0,61,0.00,,,0.00,WUHU21623XXSP,2013-02-20 16:16:00,
2013-02-20 10:21:00,16.7,5.5,29.61,WNW,292,0.0,0.9,61,0.00,,,0.00,WUHU21623XXSP,2013-02-20 16:21:00,
2013-02-20 10:26:00,17.2,6.1,29.61,NE,45,0.0,0.9,61,0.00,,,0.00,WUHU21623XXSP,2013-02-20 16:26:00,
2013-02-20 10:31:00,17.4,6.2,29.62,West,270,0.0,0.0,61,0.00,,,0.00,WUHU21623XXSP,2013-02-20 16:31:00,
2013-02-20 10:36:00,18.3,7.1,29.61,West,270,0.0,0.0,61,0.00,,,0.00,WUHU21623XXSP,2013-02-20 16:36:00,
2013-02-20 10:41:00,18.7,7.1,29.61,West,270,0.0,0.0,60,0.00,,,0.00,WUHU21623XXSP,2013-02-20 16:41:00,
2013-02-20 10:46:00,19.0,7.4,29.61,WSW,247,0.0,0.0,60,0.00,,,0.00,WUHU21623XXSP,2013-02-20 16:46:00,
2013-02-20 10:51:00,19.6,7.5,29.62,NW,315,0.0,0.0,59,0.00,,,0.00,WUHU21623XXSP,2013-02-20 16:51:00,
2013-02-20 10:56:00,19.9,7.8,29.62,NNW,337,0.0,0.0,59,0.00,,,0.00,WUHU21623XXSP,2013-02-20 16:56:00,
2013-02-20 11:01:00,19.9,7.8,29.62,WNW,292,0.0,0.0,59,0.00,,,0.00,WUHU21623XXSP,2013-02-20 17:01:00,
2013-02-20 11:06:00,20.5,8.8,29.62,WNW,292,0.0,0.0,60,0.00,,,0.00,WUHU21623XXSP,2013-02-20 17:06:00,
2013-02-20 11:11:00,20.8,8.7,29.62,WSW,247,0.0,0.0,59,0.00,,,0.00,WUHU21623XXSP,2013-02-20 17:11:00,
2013-02-20 11:16:00,21.0,8.9,29.63,WSW,247,0.0,0.0,59,0.00,,,0.00,WUHU21623XXSP,2013-02-20 17:16:00,
2013-02-20 11:21:00,21.6,9.4,29.63,SW,225,0.0,0.0,59,0.00,,,0.00,WUHU21623XXSP,2013-02-20 17:21:00,
2013-02-20 11:26:00,21.9,9.3,29.64,West,270,0.0,0.0,58,0.00,,,0.00,WUHU21623XXSP,2013-02-20 17:26:00,
2013-02-20 11:31:00,22.1,9.9,29.64,WSW,247,0.0,0.0,59,0.00,,,0.00,WUHU21623XXSP,2013-02-20 17:31:00,
2013-02-20 11:36:00,22.3,9.7,29.64,NNW,337,0.0,0.2,58,0.00,,,0.00,WUHU21623XXSP,2013-02-20 17:36:00,
2013-02-20 11:41:00,22.6,10.0,29.64,NW,315,0.0,1.3,58,0.00,,,0.00,WUHU21623XXSP,2013-02-20 17:41:00,
2013-02-20 11:46:00,22.8,10.1,29.64,SW,225,4.5,4.5,58,0.00,,,0.00,WUHU21623XXSP,2013-02-20 17:46:00,
2013-02-20 11:51:00,23.2,10.5,29.64,NW,315,3.6,4.5,58,0.00,,,0.00,WUHU21623XXSP,2013-02-20 17:51:00,
2013-02-20 11:56:00,22.8,10.1,29.64,WSW,247,0.0,3.8,58,0.00,,,0.00,WUHU21623XXSP,2013-02-20 17:56:00,
2013-02-20 12:01:00,22.6,9.6,29.64,West,270,8.7,8.7,57,0.00,,,0.00,WUHU21623XXSP,2013-02-20 18:01:00,
2013-02-20 12:06:00,22.8,10.1,29.64,WSW,247,0.0,8.7,58,0.00,,,0.00,WUHU21623XXSP,2013-02-20 18:06:00,
2013-02-20 12:11:00,23.4,11.1,29.64,SW,225,2.9,6.9,59,0.00,,,0.00,WUHU21623XXSP,2013-02-20 18:11:00,
2013-02-20 12:16:00,23.7,11.4,29.64,WNW,292,0.0,8.3,59,0.00,,,0.00,WUHU21623XXSP,2013-02-20 18:16:00,
2013-02-20 12:21:00,23.9,11.2,29.64,West,270,4.3,8.3,58,0.00,,,0.00,WUHU21623XXSP,2013-02-20 18:21:00,
2013-02-20 12:26:00,24.1,11.4,29.64,West,270,0.0,7.4,58,0.00,,,0.00,WUHU21623XXSP,2013-02-20 18:26:00,
2013-02-20 12:31:00,24.1,11.4,29.64,West,270,0.0,0.0,58,0.00,,,0.00,WUHU21623XXSP,2013-02-20 18:31:00,
2013-02-20 12:36:00,24.4,10.9,29.63,North,0,0.0,0.0,56,0.00,,,0.00,WUHU21623XXSP,2013-02-20 18:36:00,
2013-02-20 12:41:00,24.1,10.6,29.63,NNW,337,0.0,0.0,56,0.00,,,0.00,WUHU21623XXSP,2013-02-20 18:41:00,
2013-02-20 12:46:00,24.1,10.2,29.62,West,270,0.0,0.0,55,0.00,,,0.00,WUHU21623XXSP,2013-02-20 18:46:00,
2013-02-20 12:51:00,24.1,10.6,29.61,NNE,22,0.0,0.0,56,0.00,,,0.00,WUHU21623XXSP,2013-02-20 18:51:00,
2013-02-20 12:56:00,23.9,10.4,29.61,WSW,247,0.0,0.0,56,0.00,,,0.00,WUHU21623XXSP,2013-02-20 18:56:00,
2013-02-20 13:01:00,23.9,10.4,29.61,West,270,0.0,0.0,56,0.00,,,0.00,WUHU21623XXSP,2013-02-20 19:01:00,
2013-02-20 13:06:00,24.4,10.9,29.60,WSW,247,0.0,0.0,56,0.00,,,0.00,WUHU21623XXSP,2013-02-20 19:06:00,
2013-02-20 13:11:00,24.3,10.7,29.60,West,270,0.0,0.0,56,0.00,,,0.00,WUHU21623XXSP,2013-02-20 19:11:00,
2013-02-20 13:16:00,24.6,10.9,29.59,North,0,0.0,0.0,56,0.00,,,0.00,WUHU21623XXSP,2013-02-20 19:16:00,
2013-02-20 13:21:00,24.6,11.1,29.59,WNW,292,2.7,2.7,56,0.00,,,0.00,WUHU21623XXSP,2013-02-20 19:21:00,
2013-02-20 13:26:00,25.0,11.1,29.59,WNW,292,0.0,2.7,56,0.00,,,0.00,WUHU21623XXSP,2013-02-20 19:26:00,
2013-02-20 13:31:00,25.0,11.4,29.59,WNW,292,0.0,0.0,56,0.00,,,0.00,WUHU21623XXSP,2013-02-20 19:31:00,
2013-02-20 13:36:00,25.0,11.4,29.58,North,0,0.0,0.0,56,0.00,,,0.00,WUHU21623XXSP,2013-02-20 19:36:00,
2013-02-20 13:41:00,25.0,11.4,29.58,NNE,22,0.0,0.0,56,0.00,,,0.00,WUHU21623XXSP,2013-02-20 19:41:00,
2013-02-20 13:46:00,25.0,11.4,29.57,NW,315,1.3,1.3,56,0.00,,,0.00,WUHU21623XXSP,2013-02-20 19:46:00,
2013-02-20 13:51:00,25.0,11.6,29.57,North,0,0.0,1.3,56,0.00,,,0.00,WUHU21623XXSP,2013-02-20 19:51:00,
2013-02-20 13:56:00,24.8,11.3,29.57,NNE,22,0.0,0.0,56,0.00,,,0.00,WUHU21623XXSP,2013-02-20 19:56:00,
2013-02-20 14:01:00,24.6,11.1,29.57,NNE,22,0.0,8.5,56,0.00,,,0.00,WUHU21623XXSP,2013-02-20 20:01:00,
2013-02-20 14:06:00,24.1,10.6,29.57,NNW,337,0.0,8.5,56,0.00,,,0.00,WUHU21623XXSP,2013-02-20 20:06:00,
2013-02-20 14:11:00,24.1,11.0,29.56,North,0,0.0,6.0,57,0.00,,,0.00,WUHU21623XXSP,2013-02-20 20:11:00,
2013-02-20 14:16:00,24.4,11.3,29.57,NNE,22,0.0,7.4,57,0.00,,,0.00,WUHU21623XXSP,2013-02-20 20:16:00,
2013-02-20 14:21:00,24.4,11.0,29.57,North,0,0.0,7.4,57,0.00,,,0.00,WUHU21623XXSP,2013-02-20 20:21:00,
2013-02-20 14:26:00,24.4,11.3,29.56,NNE,22,0.0,0.0,57,0.00,,,0.00,WUHU21623XXSP,2013-02-20 20:26:00,
2013-02-20 14:31:00,24.4,11.3,29.56,NNE,22,0.0,0.0,57,0.00,,,0.00,WUHU21623XXSP,2013-02-20 20:31:00,
2013-02-20 14:36:00,24.4,11.3,29.56,NE,45,5.6,5.6,57,0.00,,,0.00,WUHU21623XXSP,2013-02-20 20:36:00,
2013-02-20 14:41:00,24.1,11.4,29.57,NE,45,0.0,5.6,58,0.00,,,0.00,WUHU21623XXSP,2013-02-20 20:41:00,
2013-02-20 14:46:00,24.4,11.7,29.56,NNE,22,0.0,2.0,58,0.00,,,0.00,WUHU21623XXSP,2013-02-20 20:46:00,
2013-02-20 14:51:00,24.4,11.7,29.57,NNE,22,0.0,0.0,58,0.00,,,0.00,WUHU21623XXSP,2013-02-20 20:51:00,
2013-02-20 14:56:00,24.4,11.7,29.57,NNW,337,0.0,0.0,58,0.00,,,0.00,WUHU21623XXSP,2013-02-20 20:56:00,
2013-02-20 15:01:00,24.6,11.9,29.56,NNW,337,0.0,0.0,58,0.00,,,0.00,WUHU21623XXSP,2013-02-20 21:01:00,
2013-02-20 15:06:00,24.4,11.7,29.56,NNE,22,6.7,6.7,58,0.00,,,0.00,WUHU21623XXSP,2013-02-20 21:06:00,
2013-02-20 15:11:00,24.4,11.7,29.56,NNE,22,6.7,6.7,58,0.00,,,0.00,WUHU21623XXSP,2013-02-20 21:11:00,
2013-02-20 15:16:00,24.4,11.7,29.56,NNE,22,0.0,6.7,58,0.00,,,0.00,WUHU21623XXSP,2013-02-20 21:16:00,
2013-02-20 15:21:00,24.4,12.1,29.57,NNE,22,4.9,6.7,59,0.00,,,0.00,WUHU21623XXSP,2013-02-20 21:21:00,
2013-02-20 15:26:00,24.1,11.8,29.56,NNE,22,0.0,6.5,59,0.00,,,0.00,WUHU21623XXSP,2013-02-20 21:26:00,
2013-02-20 15:31:00,24.4,12.1,29.56,NE,45,0.0,0.0,59,0.00,,,0.00,WUHU21623XXSP,2013-02-20 21:31:00,
2013-02-20 15:36:00,24.4,12.1,29.57,NNE,22,1.6,1.6,59,0.00,,,0.00,WUHU21623XXSP,2013-02-20 21:36:00,
2013-02-20 15:41:00,24.4,12.1,29.57,NNW,337,0.0,1.6,59,0.00,,,0.00,WUHU21623XXSP,2013-02-20 21:41:00,
2013-02-20 15:46:00,24.4,12.1,29.57,NE,45,0.0,3.8,59,0.00,,,0.00,WUHU21623XXSP,2013-02-20 21:46:00,
2013-02-20 15:51:00,24.8,12.5,29.56,NE,45,0.0,3.8,59,0.00,,,0.00,WUHU21623XXSP,2013-02-20 21:51:00,
2013-02-20 15:56:00,25.0,12.7,29.56,NE,45,0.0,0.0,59,0.00,,,0.00,WUHU21623XXSP,2013-02-20 21:56:00,
2013-02-20 16:01:00,25.0,12.7,29.56,NE,45,0.0,0.0,59,0.00,,,0.00,WUHU21623XXSP,2013-02-20 22:01:00,
2013-02-20 16:06:00,25.0,12.7,29.56,NE,45,0.0,0.0,59,0.00,,,0.00,WUHU21623XXSP,2013-02-20 22:06:00,
2013-02-20 16:11:00,25.0,12.7,29.56,NNE,22,0.0,0.0,59,0.00,,,0.00,WUHU21623XXSP,2013-02-20 22:11:00,
2013-02-20 16:16:00,25.3,12.8,29.56,NNE,22,0.0,0.0,59,0.00,,,0.00,WUHU21623XXSP,2013-02-20 22:16:00,
2013-02-20 16:21:00,25.5,13.2,29.56,NNE,22,0.0,0.0,59,0.00,,,0.00,WUHU21623XXSP,2013-02-20 22:21:00,
2013-02-20 16:26:00,25.5,13.2,29.56,NNE,22,0.0,0.0,59,0.00,,,0.00,WUHU21623XXSP,2013-02-20 22:26:00,
2013-02-20 16:31:00,25.3,13.0,29.56,NNE,22,0.0,0.0,59,0.00,,,0.00,WUHU21623XXSP,2013-02-20 22:31:00,
2013-02-20 16:36:00,25.2,12.8,29.56,NNE,22,0.0,0.0,59,0.00,,,0.00,WUHU21623XXSP,2013-02-20 22:36:00,
2013-02-20 16:42:00,25.0,12.7,29.56,NNE,22,0.0,0.0,59,0.00,,,0.00,WUHU21623XXSP,2013-02-20 22:42:00,
2013-02-20 16:47:00,24.6,12.3,29.56,NE,45,0.0,0.0,59,0.00,,,0.00,WUHU21623XXSP,2013-02-20 22:47:00,
2013-02-20 16:52:00,24.4,12.3,29.56,NE,45,0.0,0.0,59,0.00,,,0.00,WUHU21623XXSP,2013-02-20 22:52:00,
2013-02-20 16:57:00,24.1,11.8,29.56,NE,45,0.0,0.0,59,0.00,,,0.00,WUHU21623XXSP,2013-02-20 22:57:00,
2013-02-20 17:02:00,23.7,11.4,29.56,NE,45,0.0,0.0,59,0.00,,,0.00,WUHU21623XXSP,2013-02-20 23:02:00,
2013-02-20 17:07:00,23.5,11.7,29.56,NNE,22,0.0,0.0,60,0.00,,,0.00,WUHU21623XXSP,2013-02-20 23:07:00,
2013-02-20 17:12:00,23.4,11.5,29.56,NNE,22,0.0,0.0,60,0.00,,,0.00,WUHU21623XXSP,2013-02-20 23:12:00,
2013-02-20 17:17:00,23.2,11.3,29.56,NNE,22,0.0,0.0,60,0.00,,,0.00,WUHU21623XXSP,2013-02-20 23:17:00,
2013-02-20 17:22:00,22.8,11.3,29.56,NNE,22,0.0,0.0,61,0.00,,,0.00,WUHU21623XXSP,2013-02-20 23:22:00,
2013-02-20 17:27:00,22.8,11.3,29.55,NNE,22,0.0,0.0,61,0.00,,,0.00,WUHU21623XXSP,2013-02-20 23:27:00,
2013-02-20 17:32:00,22.8,11.3,29.56,NNE,22,0.0,0.0,61,0.00,,,0.00,WUHU21623XXSP,2013-02-20 23:32:00,
2013-02-20 17:37:00,22.6,11.1,29.56,NNE,22,0.0,0.0,61,0.00,,,0.00,WUHU21623XXSP,2013-02-20 23:37:00,
2013-02-20 17:42:00,22.6,11.1,29.56,NNE,22,0.0,0.0,61,0.00,,,0.00,WUHU21623XXSP,2013-02-20 23:42:00,
2013-02-20 17:47:00,22.3,11.2,29.55,NNE,22,0.0,0.0,62,0.00,,,0.00,WUHU21623XXSP,2013-02-20 23:47:00,
2013-02-20 17:52:00,22.1,11.0,29.55,NNE,22,0.0,0.0,62,0.00,,,0.00,WUHU21623XXSP,2013-02-20 23:52:00,
2013-02-20 17:57:00,21.9,10.8,29.55,NNE,22,0.0,0.0,62,0.00,,,0.00,WUHU21623XXSP,2013-02-20 23:57:00,
2013-02-20 18:02:00,21.9,10.8,29.55,NNE,22,0.0,0.0,62,0.00,,,0.00,WUHU21623XXSP,2013-02-21 00:02:00,
2013-02-20 18:07:00,21.6,10.8,29.55,NNE,22,0.0,0.0,63,0.00,,,0.00,WUHU21623XXSP,2013-02-21 00:07:00,
2013-02-20 18:12:00,21.6,10.8,29.55,NNE,22,0.0,0.0,63,0.00,,,0.00,WUHU21623XXSP,2013-02-21 00:12:00,
2013-02-20 18:17:00,21.4,10.7,29.54,NNE,22,0.0,0.0,63,0.00,,,0.00,WUHU21623XXSP,2013-02-21 00:17:00,
2013-02-20 18:22:00,21.4,10.7,29.54,NNE,22,0.0,0.0,63,0.00,,,0.00,WUHU21623XXSP,2013-02-21 00:22:00,
2013-02-20 18:27:00,21.0,10.7,29.54,NNE,22,0.0,0.0,64,0.00,,,0.00,WUHU21623XXSP,2013-02-21 00:27:00,
2013-02-20 18:32:00,21.0,10.7,29.55,NNE,22,0.0,0.0,64,0.00,,,0.00,WUHU21623XXSP,2013-02-21 00:32:00,
2013-02-20 18:37:00,21.0,10.7,29.55,NNE,22,0.0,0.0,64,0.00,,,0.00,WUHU21623XXSP,2013-02-21 00:37:00,
2013-02-20 18:42:00,20.8,10.8,29.55,NNE,22,0.0,0.0,65,0.00,,,0.00,WUHU21623XXSP,2013-02-21 00:42:00,
2013-02-20 18:47:00,20.5,10.8,29.55,NNE,22,0.0,0.0,65,0.00,,,0.00,WUHU21623XXSP,2013-02-21 00:47:00,
2013-02-20 18:52:00,20.5,10.5,29.55,NNE,22,0.0,0.0,65,0.00,,,0.00,WUHU21623XXSP,2013-02-21 00:52:00,
2013-02-20 18:57:00,20.5,10.5,29.56,NNE,22,0.0,0.0,65,0.00,,,0.00,WUHU21623XXSP,2013-02-21 00:57:00,
2013-02-20 19:02:00,20.3,10.3,29.55,NNE,22,0.0,0.0,65,0.00,,,0.00,WUHU21623XXSP,2013-02-21 01:02:00,
2013-02-20 19:07:00,20.3,10.3,29.55,NNE,22,0.0,0.0,65,0.00,,,0.00,WUHU21623XXSP,2013-02-21 01:07:00,
2013-02-20 19:12:00,20.1,10.1,29.55,NNE,22,0.0,0.0,65,0.00,,,0.00,WUHU21623XXSP,2013-02-21 01:12:00,
2013-02-20 19:17:00,19.9,10.5,29.55,NNE,22,0.0,0.0,66,0.00,,,0.00,WUHU21623XXSP,2013-02-21 01:17:00,
2013-02-20 19:22:00,19.9,10.3,29.55,NNE,22,0.0,0.0,66,0.00,,,0.00,WUHU21623XXSP,2013-02-21 01:22:00,
2013-02-20 19:27:00,19.9,10.3,29.55,NNE,22,0.0,0.0,66,0.00,,,0.00,WUHU21623XXSP,2013-02-21 01:27:00,
2013-02-20 19:32:00,19.8,10.3,29.55,NNE,22,0.0,0.0,66,0.00,,,0.00,WUHU21623XXSP,2013-02-21 01:32:00,
2013-02-20 19:37:00,19.9,10.3,29.54,NNE,22,0.0,0.0,66,0.00,,,0.00,WUHU21623XXSP,2013-02-21 01:37:00,
2013-02-20 19:42:00,19.8,10.1,29.54,NNE,22,0.0,0.0,66,0.00,,,0.00,WUHU21623XXSP,2013-02-21 01:42:00,
2013-02-20 19:47:00,19.8,10.5,29.54,NNE,22,0.0,0.0,67,0.00,,,0.00,WUHU21623XXSP,2013-02-21 01:47:00,
2013-02-20 19:52:00,19.8,10.3,29.54,NNE,22,0.0,0.0,67,0.00,,,0.00,WUHU21623XXSP,2013-02-21 01:52:00,
2013-02-20 19:57:00,19.6,10.3,29.54,NNE,22,0.0,0.0,67,0.00,,,0.00,WUHU21623XXSP,2013-02-21 01:57:00,
2013-02-20 20:02:00,19.6,10.3,29.53,ENE,67,0.0,0.0,67,0.00,,,0.00,WUHU21623XXSP,2013-02-21 02:02:00,
2013-02-20 20:07:00,19.6,10.3,29.54,ENE,67,0.0,0.0,67,0.00,,,0.00,WUHU21623XXSP,2013-02-21 02:07:00,
2013-02-20 20:12:00,19.6,10.3,29.53,SE,135,0.0,0.0,67,0.00,,,0.00,WUHU21623XXSP,2013-02-21 02:12:00,
2013-02-20 20:17:00,19.6,10.3,29.53,SE,135,0.0,0.0,67,0.00,,,0.00,WUHU21623XXSP,2013-02-21 02:17:00,
2013-02-20 20:22:00,19.6,10.3,29.53,SE,135,0.0,0.0,67,0.00,,,0.00,WUHU21623XXSP,2013-02-21 02:22:00,
2013-02-20 20:27:00,19.6,10.3,29.54,ESE,112,0.0,0.0,67,0.00,,,0.00,WUHU21623XXSP,2013-02-21 02:27:00,
2013-02-20 20:32:00,19.6,10.3,29.53,ESE,112,0.0,0.0,67,0.00,,,0.00,WUHU21623XXSP,2013-02-21 02:32:00,
2013-02-20 20:37:00,19.4,10.1,29.53,SE,135,0.0,0.0,67,0.00,,,0.00,WUHU21623XXSP,2013-02-21 02:37:00,
2013-02-20 20:42:00,19.4,10.1,29.53,SE,135,0.0,0.0,67,0.00,,,0.00,WUHU21623XXSP,2013-02-21 02:42:00,
2013-02-20 20:47:00,19.4,10.1,29.54,SE,135,0.0,0.0,67,0.00,,,0.00,WUHU21623XXSP,2013-02-21 02:47:00,
2013-02-20 20:52:00,19.4,10.4,29.54,SE,135,0.0,0.0,68,0.00,,,0.00,WUHU21623XXSP,2013-02-21 02:52:00,
2013-02-20 20:57:00,19.4,10.4,29.54,ESE,112,0.0,0.0,68,0.00,,,0.00,WUHU21623XXSP,2013-02-21 02:57:00,
2013-02-20 21:02:00,19.2,10.3,29.54,SE,135,1.6,1.6,68,0.00,,,0.00,WUHU21623XXSP,2013-02-21 03:02:00,
2013-02-20 21:07:00,19.2,10.3,29.54,SE,135,0.0,1.6,68,0.00,,,0.00,WUHU21623XXSP,2013-02-21 03:07:00,
2013-02-20 21:12:00,19.2,10.3,29.54,SE,135,0.0,0.0,68,0.00,,,0.00,WUHU21623XXSP,2013-02-21 03:12:00,
2013-02-20 21:17:00,19.2,10.3,29.54,SE,135,0.0,0.0,68,0.00,,,0.00,WUHU21623XXSP,2013-02-21 03:17:00,
2013-02-20 21:22:00,19.2,10.3,29.54,SE,135,0.0,0.0,68,0.00,,,0.00,WUHU21623XXSP,2013-02-21 03:22:00,
2013-02-20 21:27:00,19.2,10.3,29.55,SE,135,1.1,1.1,68,0.00,,,0.00,WUHU21623XXSP,2013-02-21 03:27:00,
2013-02-20 21:32:00,19.2,10.3,29.55,SE,135,0.0,1.1,68,0.00,,,0.00,WUHU21623XXSP,2013-02-21 03:32:00,
2013-02-20 21:37:00,19.0,10.1,29.56,ESE,112,0.0,0.0,68,0.00,,,0.00,WUHU21623XXSP,2013-02-21 03:37:00,
2013-02-20 21:42:00,19.0,10.5,29.56,ENE,67,0.0,0.0,69,0.00,,,0.00,WUHU21623XXSP,2013-02-21 03:42:00,
2013-02-20 21:47:00,19.0,10.5,29.56,ENE,67,0.0,0.0,69,0.00,,,0.00,WUHU21623XXSP,2013-02-21 03:47:00,
2013-02-20 21:52:00,19.0,10.5,29.57,ENE,67,0.0,0.0,69,0.00,,,0.00,WUHU21623XXSP,2013-02-21 03:52:00,
2013-02-20 21:57:00,19.0,10.5,29.57,ESE,112,0.0,0.0,69,0.00,,,0.00,WUHU21623XXSP,2013-02-21 03:57:00,
2013-02-20 22:03:00,18.9,10.3,29.57,ESE,112,0.0,0.0,69,0.00,,,0.00,WUHU21623XXSP,2013-02-21 04:03:00,
2013-02-20 22:08:00,18.9,10.3,29.57,ESE,112,0.0,0.0,69,0.00,,,0.00,WUHU21623XXSP,2013-02-21 04:08:00,
2013-02-20 22:13:00,18.9,10.3,29.57,NE,45,0.0,0.0,69,0.00,,,0.00,WUHU21623XXSP,2013-02-21 04:13:00,
2013-02-20 22:18:00,18.7,10.1,29.57,ENE,67,0.0,0.0,69,0.00,,,0.00,WUHU21623XXSP,2013-02-21 04:18:00,
2013-02-20 22:23:00,18.5,10.0,29.57,NE,45,2.9,2.9,69,0.00,,,0.00,WUHU21623XXSP,2013-02-21 04:23:00,
2013-02-20 22:28:00,18.3,10.1,29.57,NE,45,2.5,2.9,70,0.00,,,0.00,WUHU21623XXSP,2013-02-21 04:28:00,
2013-02-20 22:33:00,18.1,10.0,29.58,NE,45,0.0,4.9,70,0.00,,,0.00,WUHU21623XXSP,2013-02-21 04:33:00,
2013-02-20 22:38:00,18.1,10.0,29.58,ENE,67,0.0,4.9,70,0.00,,,0.00,WUHU21623XXSP,2013-02-21 04:38:00,
2013-02-20 22:43:00,18.1,10.0,29.58,ESE,112,2.9,3.1,70,0.00,,,0.00,WUHU21623XXSP,2013-02-21 04:43:00,
2013-02-20 22:48:00,18.1,10.0,29.58,SE,135,0.0,4.7,70,0.00,,,0.00,WUHU21623XXSP,2013-02-21 04:48:00,
2013-02-20 22:57:00,18.1,10.0,29.58,ESE,113,0.0,0.0,70,0.00,,,0.00,WUHU21623XXSP,2013-02-21 04:57:00,
2013-02-20 23:57:00,17.8,10.0,29.56,NE,45,0.0,0.0,71,0.00,,,0.00,WUHU21623XXSP,2013-02-21 05:57:00,